Cairns, Australia

7:00 AM AEST on December 19, 2017 (GMT +1000)
Cairns International

Weather History for YBCS - January, 2013

Change the Weather History Date:

Friday, January 4, 2013

  Actual Average Record
Temperature  
Mean Temperature 82 °F -  
Max Temperature 89 °F 89 °F 91 °F (2016)
Min Temperature 74 °F 74 °F 71 °F (2004)
Cooling Degree Days 16    
Growing Degree Days 32 (Base 50)    
Moisture  
Dew Point 73 °F    
Average Humidity 76    
Maximum Humidity 94    
Minimum Humidity 45    
Precipitation  
Precipitation 0.03 in 0.53 in - ()
Sea Level Pressure  
Sea Level Pressure 29.76 in    
Wind  
Wind Speed 12 mph ()    
Max Wind Speed 22 mph    
Max Gust Speed -    
Visibility 6.6 miles    
Events Rain    
Averages and records for this station are not official NWS values.
T = Trace of Precipitation, MM = Missing Value Source: Averaged Metar Reports

Daily Weather History Graph

Daily Weather History Graph

Search for Another Location

Airport or City:

Trip Planner

Search our weather history database for the weather conditions in past years. The results will help you decide how hot, cold, wet, or windy it might be!

Date:

Astronomy

Jan. 04, 2013 Rise Set
Actual Time 5:48 AM AEST 6:54 PM AEST
Civil Twilight 5:24 AM AEST 7:18 PM AEST
Nautical Twilight 4:56 AM AEST 7:46 PM AEST
Astronomical Twilight 4:27 AM AEST 8:15 PM AEST
Moon 11:32 PM AEST (1/4) 11:19 AM AEST (1/4)
Length of Visible Light 13h 53m
Length of Day
13h 06m
Waning Gibbous, 62% of the Moon is Illuminated
Jan 4
Waning Gibbous
Jan 5
Last Quarter
Jan 12
New
Jan 19
First Quarter
Jan 27
Full

Hourly Weather History & Observations

Time (AEST) Temp. Heat Index Dew Point Humidity Pressure Visibility Wind Dir Wind Speed Gust Speed Precip Events Conditions
12:00 AM 79 °F - 74 °F 79% 29.79 in - South 12.7 mph - -  
12:00 AM 78.8 °F - 73.4 °F 83% 29.77 in 6.2 mi South 12.7 mph - N/A   Scattered Clouds
12:30 AM 78.8 °F - 73.4 °F 83% 29.77 in 6.2 mi South 10.4 mph - N/A   Scattered Clouds
1:00 AM 79 °F - 74 °F 79% 29.77 in - South 10.4 mph - -  
1:00 AM 78.8 °F - 73.4 °F 83% 29.77 in 6.2 mi South 10.4 mph - N/A Rain Light Rain Showers
1:30 AM 78.8 °F - 73.4 °F 83% 29.74 in 6.2 mi South 9.2 mph - N/A   Scattered Clouds
2:00 AM 78.8 °F - 73.4 °F 83% 29.74 in 3.1 mi South 9.2 mph - N/A Rain Light Rain Showers
2:30 AM 77.0 °F - 75.2 °F 94% 29.74 in 5.6 mi South 10.4 mph - N/A Rain Light Rain Showers
3:00 AM 78 °F - 74 °F 83% 29.73 in - South 8.1 mph - -   Overcast
3:00 AM 77.0 °F - 73.4 °F 89% 29.71 in 3.7 mi South 8.1 mph - N/A Rain Light Rain Showers
3:12 AM 77.0 °F - 73.4 °F 89% 29.71 in 2.5 mi South 10.4 mph - N/A Rain Light Rain Showers
3:30 AM 75.2 °F - 73.4 °F 94% 29.74 in 2.5 mi South 11.5 mph - N/A Rain Light Rain Showers
4:00 AM 76 °F - 73 °F 88% 29.74 in - South 9.2 mph - -  
4:00 AM 77.0 °F - 73.4 °F 89% 29.74 in 3.7 mi South 9.2 mph - N/A Rain Light Rain Showers
4:30 AM 75.2 °F - 73.4 °F 94% 29.74 in 3.7 mi South 13.8 mph - N/A Rain Light Rain Showers
5:00 AM 75.2 °F - 71.6 °F 89% 29.74 in 3.7 mi SSW 10.4 mph - N/A Rain Light Rain Showers
5:30 AM 77.0 °F - 71.6 °F 83% 29.74 in 6.2 mi SSW 12.7 mph - N/A   Mostly Cloudy
6:00 AM 77 °F - 72 °F 82% 29.76 in 16 mi South 10.4 mph - - Rain Light Rain Showers
6:00 AM 77.0 °F - 73.4 °F 89% 29.74 in 6.2 mi South 10.4 mph - N/A   Scattered Clouds
6:30 AM 77.0 °F - 73.4 °F 89% 29.77 in 6.2 mi South 10.4 mph - N/A   Scattered Clouds
7:00 AM 79 °F - 73 °F 78% 29.79 in - South 11.5 mph - -  
7:00 AM 78.8 °F - 73.4 °F 83% 29.77 in 6.2 mi South 11.5 mph - N/A   Scattered Clouds
7:30 AM 78.8 °F - 73.4 °F 83% 29.77 in 6.2 mi South 11.5 mph - N/A   Scattered Clouds
8:00 AM 80.6 °F 85.4 °F 73.4 °F 79% 29.80 in 6.2 mi South 11.5 mph - N/A   Scattered Clouds
8:30 AM 82.4 °F 88.2 °F 73.4 °F 74% 29.80 in 6.2 mi South 10.4 mph - N/A   Scattered Clouds
9:00 AM 84 °F - 74 °F 65% 29.81 in 19 mi South 11.5 mph - -   Partly Cloudy
9:00 AM 84.2 °F 90.9 °F 73.4 °F 70% 29.80 in 6.2 mi South 11.5 mph - N/A   Scattered Clouds
9:30 AM 87.8 °F 97.6 °F 75.2 °F 66% 29.80 in 6.2 mi SE 15.0 mph - N/A   Scattered Clouds
10:00 AM 88 °F - 73 °F 52% 29.81 in - SE 18.4 mph - -  
10:00 AM 87.8 °F 95.6 °F 73.4 °F 62% 29.80 in 6.2 mi SE 18.4 mph - N/A   Scattered Clouds
10:30 AM 86.0 °F 91.8 °F 71.6 °F 62% 29.80 in 6.2 mi SE 17.3 mph - N/A   Scattered Clouds
11:00 AM 86.0 °F 93.4 °F 73.4 °F 66% 29.80 in 6.2 mi SSE 18.4 mph - N/A   Partly Cloudy
11:30 AM 89.6 °F 96.2 °F 71.6 °F 55% 29.77 in 6.2 mi SE 17.3 mph - N/A   Partly Cloudy
12:00 PM 89 °F - 73 °F 50% 29.78 in 19 mi SSE 16.1 mph - -   Partly Cloudy
12:00 PM 89.6 °F 98.2 °F 73.4 °F 59% 29.77 in 6.2 mi SSE 16.1 mph - N/A   Partly Cloudy
12:30 PM 86.0 °F 91.8 °F 71.6 °F 62% 29.77 in 6.2 mi SE 19.6 mph - N/A Rain Light Rain Showers
1:00 PM 87 °F - 72 °F 54% 29.78 in - SE 19.6 mph - -  
1:00 PM 87.8 °F 95.6 °F 73.4 °F 62% 29.77 in 6.2 mi SE 19.6 mph - N/A   Scattered Clouds
1:30 PM 89.6 °F 96.2 °F 71.6 °F 55% 29.74 in 6.2 mi SSE 20.7 mph - N/A   Scattered Clouds
2:00 PM 87.8 °F 92.6 °F 69.8 °F 55% 29.74 in 6.2 mi SE 20.7 mph - N/A   Scattered Clouds
2:30 PM 89.6 °F 94.7 °F 69.8 °F 52% 29.74 in 6.2 mi SE 21.9 mph - N/A   Scattered Clouds
3:00 PM 88 °F - 69 °F 45% 29.75 in 19 mi SE 19.6 mph - -   Partly Cloudy
3:00 PM 87.8 °F 92.6 °F 69.8 °F 55% 29.74 in 6.2 mi SE 19.6 mph - N/A   Scattered Clouds
3:30 PM 86.0 °F 90.4 °F 69.8 °F 58% 29.74 in 6.2 mi SE 16.1 mph - N/A   Scattered Clouds
4:00 PM 84 °F - 73 °F 62% 29.75 in - SSE 12.7 mph - -  
4:00 PM 84.2 °F 90.9 °F 73.4 °F 70% 29.74 in 6.2 mi SSE 12.7 mph - N/A   Scattered Clouds
4:30 PM 84.2 °F 90.9 °F 73.4 °F 70% 29.74 in 6.2 mi South 11.5 mph - N/A   Scattered Clouds
5:00 PM 82.4 °F 88.2 °F 73.4 °F 74% 29.74 in 6.2 mi South 10.4 mph - N/A   Scattered Clouds
5:26 PM 80.6 °F 86.2 °F 75.2 °F 84% 29.74 in 3.7 mi South 12.7 mph - N/A Rain Light Rain Showers
5:30 PM 78.8 °F - 75.2 °F 89% 29.74 in 6.2 mi South 11.5 mph - N/A Rain Light Rain Showers
6:00 PM 79 °F - 74 °F 81% 29.75 in - South 11.5 mph - -  
6:00 PM 78.8 °F - 75.2 °F 89% 29.74 in 6.2 mi South 11.5 mph - N/A   Scattered Clouds
6:30 PM 78.8 °F - 75.2 °F 89% 29.74 in 6.2 mi SSE 12.7 mph - N/A   Scattered Clouds
7:00 PM 78.8 °F - 73.4 °F 83% 29.77 in 6.2 mi SSE 9.2 mph - N/A   Scattered Clouds
7:30 PM 78.8 °F - 73.4 °F 83% 29.77 in 6.2 mi SSE 12.7 mph - N/A Rain Light Rain Showers
8:00 PM 78.8 °F - 75.2 °F 89% 29.77 in 6.2 mi SSE 11.5 mph - N/A   Mostly Cloudy
8:30 PM 78.8 °F - 73.4 °F 83% 29.77 in 6.2 mi South 11.5 mph - N/A   Scattered Clouds
9:00 PM 77 °F - 74 °F 86% 29.79 in - SSE 11.5 mph - -   Overcast
9:00 PM 77.0 °F - 73.4 °F 89% 29.77 in 5.0 mi SSE 11.5 mph - N/A Rain Light Rain Showers
9:30 PM 77.0 °F - 73.4 °F 89% 29.80 in 5.0 mi South 11.5 mph - N/A   Mostly Cloudy
10:00 PM 78 °F - 74 °F 82% 29.80 in - South 10.4 mph - -  
10:00 PM 77.0 °F - 73.4 °F 89% 29.80 in 6.2 mi South 10.4 mph - N/A   Partly Cloudy
10:30 PM 77.0 °F - 73.4 °F 89% 29.80 in 6.2 mi South 8.1 mph - N/A   Scattered Clouds
11:00 PM 77.0 °F - 71.6 °F 83% 29.80 in 6.2 mi South 10.4 mph - N/A   Partly Cloudy
11:30 PM 77.0 °F - 71.6 °F 83% 29.80 in 6.2 mi South 9.2 mph - N/A   Partly Cloudy